Strona główna
METAR-TAF:

METAR-TAF

Lotnisko :

Lansing Municipal Airport

Lansing, Illinois, Stany Zjednoczone

Szerokość geograficzna: 41-32-24N, Długość geograficzna: 087-31-56W, wysokość: 188 m

Aktualna obserwacja pogody

Raport powstał 10 minut temu, godzina 20:15 UTC
Wiatr 8 kt od południe
Temperatura 4°C
Wilgotność 60%
Ciśnienie 1026 hPa
Widzialność: 16.1 km
Zachmurzenie całkowite na wysokości 9000 ft

METAR: KIGQ 072015Z AUTO 18008KT 10SM OVC090 04/M03 A3031 RMK AO2 T00351029

czas: 14:25 (20:25 UTC)


TAF: brakujący

Obserwacja i prognoza pogody dla ponad 4000 lotnisk (raport METAR i TAF).

Dostępne stacje oznaczono żółtymi i czerwonymi punktami na mapie.

Najedź kursorem aby zobaczyć nazwę stacji.

Kliknij aby zobaczyć obserwacje i prognozy pogody.

Aby zmienić mapę: kliknij na zielony przycisk z czarnym krzyżykiem, aby powiększyć; na zielony przycisk z myślnikiem, aby pomniejszyć; na zielone strzałki, aby przejść do map sąsiednich.


METAR-TAF: